Content
SEND FEEDBACK

Daily
Averages
Monthly
Summary
Switzerland

GENEVA, SWITZERLAND


Home > Europe > Switzerland
Elevation: 1364 feet     Latitude: 46 15N     Longitude: 006 08E

WEATHER
 
SELECT A DAY
Number of Records: 305,729;   Date Range: 7/1/96 - 7/29/14
 
SHARE

PRINT THIS DATA

[ ← Previous Day ]
WEATHER ALMANAC - NOVEMBER 16, 2013
[ Next Day → ]
[ °C ]   °F
Weather ElementAverageHighLow
Temperature40.7 °F42 °F (1:00 am)39 °F (7:00 am)
Dewpoint35.4 °F37.4 °F (2:50 pm)33 °F (2:00 am)
Humidity79.3 %87 % (3:20 am)64 % (1:00 am)
Barometer30.30 in30.37 in (2:00 am)30.24 in (3:20 pm)
Wind Speed5.3 mph10.4 mph (12:20 am)
Wind Gust16.1 mph (5:20 am)
Weather ElementAverage
Visibility5.8 mi
Wind DirectionNNE (20.2 °)

Weather ElementTotal
Precipitation---
Heating Degree Days24.5 (Base 65)
Averaged from 66 records on November 16, 2013
WEATHER CONDITIONS BREAKOUT
WIND DIRECTION BREAKOUT
WEATHER BY HOUR - NOVEMBER 16, 2013
[ °C ]   °F
Local TimeTemperatureDewpointHumidityBarometerVisibilityWind DirectionWind SpeedGust SpeedPrecipitationEventsConditions
12:20 AM41.0 °F35.6 °F81 %30.30 in6.2 miNNE (20°)10.4 mphMostly Cloudy
12:50 AM41.0 °F35.6 °F81 %30.30 in6.2 miNNE (20°)9.2 mphMostly Cloudy
1:00 AM42.0 °F34.0 °F64 %30.36 in7.0 miNNE (20°)9.2 mphMist
1:20 AM41.0 °F35.6 °F81 %30.33 in6.2 miNorth (10°)5.8 mphMostly Cloudy
1:50 AM41.0 °F33.8 °F76 %30.33 in6.2 miNorth (10°)5.8 mphOvercast
2:00 AM41.0 °F33.0 °F65 %30.37 inNorth (10°)6.9 mph
2:50 AM41.0 °F33.8 °F76 %30.30 in6.2 miVariable2.3 mphMostly Cloudy
3:00 AM40.0 °F34.0 °F71 %30.36 inNorth4.6 mph
3:20 AM39.2 °F35.6 °F87 %30.30 in6.2 miVariable2.3 mphMostly Cloudy
3:50 AM39.2 °F35.6 °F87 %30.30 in6.2 miVariable2.3 mphMostly Cloudy
4:20 AM39.2 °F35.6 °F87 %30.30 in6.2 miVariable1.2 mphMostly Cloudy
4:50 AM39.2 °F35.6 °F87 %30.30 in6.2 miCalmOvercast
5:00 AM40.0 °F34.0 °F71 %30.35 inNorth2.3 mph
5:20 AM39.2 °F35.6 °F87 %30.30 in6.2 miVariable1.2 mph16.1 mphOvercast
5:50 AM39.2 °F35.6 °F87 %30.30 in6.2 miVariable3.5 mphOvercast
6:00 AM40.0 °F33.0 °F69 %30.37 inNorth (10°)5.8 mph
6:20 AM39.2 °F33.8 °F81 %30.30 in6.2 miVariable3.5 mphOvercast
6:50 AM39.2 °F33.8 °F81 %30.33 in6.2 miVariable3.5 mphOvercast
7:00 AM39.0 °F33.0 °F73 %30.37 in9.0 miNorth3.5 mphMist
7:20 AM39.2 °F35.6 °F87 %30.30 in6.2 miVariable2.3 mphOvercast
7:50 AM39.2 °F33.8 °F81 %30.30 in6.2 miVariable2.3 mphOvercast
8:00 AM40.0 °F33.0 °F69 %30.36 inNorth (10°)6.9 mph
8:20 AM39.2 °F35.6 °F87 %30.30 in6.2 miNorth (10°)3.5 mphOvercast
8:50 AM41.0 °F35.6 °F81 %30.30 in6.2 miNorth (360°)3.5 mphOvercast
9:00 AM40.0 °F34.0 °F71 %30.37 inNorth (10°)5.8 mph
9:20 AM41.0 °F35.6 °F81 %30.33 in6.2 miNorth (10°)6.9 mphOvercast
9:50 AM41.0 °F35.6 °F81 %30.33 in6.2 miNorth (10°)6.9 mphOvercast
10:20 AM41.0 °F35.6 °F81 %30.30 in5.6 miNorth (10°)6.9 mphOvercast
10:50 AM41.0 °F35.6 °F81 %30.30 in5.6 miNNE (20°)6.9 mphOvercast
11:00 AM41.0 °F34.0 °F69 %30.36 inNorth (10°)8.1 mph
11:20 AM41.0 °F35.6 °F81 %30.30 in5.0 miNNE (20°)8.1 mphOvercast
11:50 AM41.0 °F35.6 °F81 %30.30 in5.0 miNNE (20°)9.2 mphOvercast
12:00 PM42.0 °F35.0 °F66 %30.34 inNNE (20°)8.1 mph
12:20 PM41.0 °F35.6 °F81 %30.30 in6.2 miNNE (20°)6.9 mphOvercast
12:50 PM41.0 °F35.6 °F81 %30.27 in5.6 miNNE (30°)8.1 mphOvercast
1:00 PM42.0 °F35.0 °F66 %30.32 in6.0 miNNE (20°)9.2 mphMist
1:20 PM41.0 °F35.6 °F81 %30.27 in5.0 miNNE (30°)4.6 mphOvercast
1:50 PM41.0 °F35.6 °F81 %30.27 in5.0 miNNE (20°)8.1 mphOvercast
2:00 PM42.0 °F36.0 °F70 %30.31 inNNE (20°)8.1 mph
2:20 PM41.0 °F35.6 °F81 %30.27 in5.0 miNNE (20°)6.9 mphOvercast
2:50 PM41.0 °F37.4 °F87 %30.27 in4.3 miNNE (20°)8.1 mphOvercast
3:00 PM41.0 °F35.0 °F73 %30.30 inNNE (20°)8.1 mph
3:20 PM41.0 °F35.6 °F81 %30.24 in5.0 miNorth (10°)5.8 mphOvercast
3:50 PM41.0 °F35.6 °F81 %30.24 in5.0 miNorth (10°)5.8 mphOvercast
4:20 PM41.0 °F35.6 °F81 %30.24 in5.0 miNorth (10°)6.9 mphOvercast
4:50 PM41.0 °F35.6 °F81 %30.24 in5.0 miNorth (10°)5.8 mphOvercast
5:00 PM41.0 °F35.0 °F73 %30.30 inNorth (10°)8.1 mph
5:20 PM41.0 °F35.6 °F81 %30.24 in5.0 miNorth (10°)5.8 mphOvercast
5:50 PM41.0 °F35.6 °F81 %30.24 in5.0 miNorth (10°)4.6 mphOvercast
6:00 PM41.0 °F35.0 °F73 %30.30 inNorth5.8 mph
6:20 PM41.0 °F35.6 °F81 %30.24 in5.0 miNorth (10°)4.6 mphOvercast
6:50 PM41.0 °F35.6 °F81 %30.24 in5.0 miNorth (10°)5.8 mphOvercast
7:00 PM41.0 °F36.0 °F74 %30.30 in5.0 miNorth (10°)8.1 mphMist
7:20 PM41.0 °F35.6 °F81 %30.24 in5.6 miNorth (10°)4.6 mphOvercast
7:50 PM41.0 °F37.4 °F87 %30.27 in5.0 miNorth (10°)4.6 mphOvercast
8:00 PM41.0 °F36.0 °F74 %30.31 inNorth (10°)5.8 mph
8:20 PM41.0 °F37.4 °F87 %30.27 in5.0 miNorth (10°)3.5 mphOvercast
8:50 PM41.0 °F35.6 °F81 %30.27 in6.2 miNorth (360°)4.6 mphOvercast
9:00 PM41.0 °F36.0 °F74 %30.31 inNorth (10°)5.8 mph
9:20 PM41.0 °F35.6 °F81 %30.24 in6.2 miNorth (10°)3.5 mphOvercast
9:50 PM41.0 °F37.4 °F87 %30.27 in6.2 miVariable2.3 mphOvercast
10:20 PM41.0 °F37.4 °F87 %30.24 in6.2 miVariable2.3 mphOvercast
10:50 PM41.0 °F37.4 °F87 %30.24 in6.2 miVariable2.3 mphOvercast
11:00 PM41.0 °F36.0 °F75 %30.30 inNorth4.6 mph
11:20 PM41.0 °F37.4 °F87 %30.24 in6.2 miVariable2.3 mphOvercast
11:50 PM41.0 °F37.4 °F87 %30.24 in6.2 miVariable1.2 mphOvercast
Hourly data recorded from LSGG, located miles away from Geneva, Switzerland







STORIES FROM OUR PARTNERS